Time,TemperatureF,DewpointF,PressureIn,WindDirection,WindDirectionDegrees,WindSpeedMPH,WindSpeedGustMPH,Humidity,HourlyPrecipIn,Conditions,Clouds,dailyrainin,SoftwareType,DateUTC
2013-07-09 00:01:00,76.7,74.5,29.94,SW,225,4.0,4.0,93,0.00,,,0.00,Wunderground v.1.15,2013-07-09 04:01:00,
2013-07-09 00:04:00,76.6,74.4,29.94,SW,217,4.0,6.0,93,0.00,,,0.00,Wunderground v.1.15,2013-07-09 04:04:00,
2013-07-09 00:06:00,76.6,74.4,29.94,SW,219,4.0,6.0,93,0.00,,,0.00,Wunderground v.1.15,2013-07-09 04:06:00,
2013-07-09 00:10:00,76.6,74.4,29.94,SW,221,5.0,6.0,93,0.00,,,0.00,Wunderground v.1.15,2013-07-09 04:10:00,
2013-07-09 00:13:00,76.6,74.4,29.94,SW,228,5.0,6.0,93,0.00,,,0.00,Wunderground v.1.15,2013-07-09 04:13:00,
2013-07-09 00:19:00,76.7,74.5,29.94,SW,217,5.0,6.0,93,0.00,,,0.00,Wunderground v.1.15,2013-07-09 04:19:00,
2013-07-09 00:26:00,76.8,74.3,29.94,SSW,204,5.0,6.0,92,0.00,,,0.00,Wunderground v.1.15,2013-07-09 04:26:00,
2013-07-09 00:32:00,76.8,74.3,29.95,WSW,246,5.0,5.0,92,0.00,,,0.00,Wunderground v.1.15,2013-07-09 04:32:00,
2013-07-09 00:38:00,76.8,74.3,29.95,SSW,212,4.0,5.0,92,0.00,,,0.00,Wunderground v.1.15,2013-07-09 04:38:00,
2013-07-09 00:43:00,76.7,74.2,29.95,SW,219,4.0,4.0,92,0.00,,,0.00,Wunderground v.1.15,2013-07-09 04:43:00,
2013-07-09 00:49:00,76.6,74.1,29.95,SW,215,4.0,4.0,92,0.00,,,0.00,Wunderground v.1.15,2013-07-09 04:49:00,
2013-07-09 00:54:00,76.6,74.1,29.95,SW,217,4.0,5.0,92,0.00,,,0.00,Wunderground v.1.15,2013-07-09 04:54:00,
2013-07-09 01:00:00,76.5,74.0,29.95,SSW,213,4.0,4.0,92,0.00,,,0.00,Wunderground v.1.15,2013-07-09 05:00:00,
2013-07-09 01:09:00,76.3,73.8,29.95,SW,232,3.0,4.0,92,0.00,,,0.00,Wunderground v.1.15,2013-07-09 05:09:00,
2013-07-09 01:17:00,75.9,73.4,29.95,SW,221,3.0,4.0,92,0.00,,,0.00,Wunderground v.1.15,2013-07-09 05:17:00,
2013-07-09 01:24:00,75.7,73.2,29.95,SW,222,3.0,4.0,92,0.00,,,0.00,Wunderground v.1.15,2013-07-09 05:24:00,
2013-07-09 01:30:00,75.5,73.3,29.95,SW,236,2.0,4.0,93,0.00,,,0.00,Wunderground v.1.15,2013-07-09 05:30:00,
2013-07-09 01:36:00,75.4,73.2,29.95,SSW,211,2.0,4.0,93,0.00,,,0.00,Wunderground v.1.15,2013-07-09 05:36:00,
2013-07-09 01:44:00,75.3,73.1,29.94,WSW,238,2.0,4.0,93,0.00,,,0.00,Wunderground v.1.15,2013-07-09 05:44:00,
2013-07-09 01:50:00,75.2,73.4,29.94,SW,226,2.0,4.0,94,0.00,,,0.00,Wunderground v.1.15,2013-07-09 05:50:00,
2013-07-09 01:56:00,75.0,73.2,29.94,SW,219,2.0,4.0,94,0.00,,,0.00,Wunderground v.1.15,2013-07-09 05:56:00,
2013-07-09 02:05:00,74.9,73.1,29.94,SW,236,3.0,4.0,94,0.00,,,0.00,Wunderground v.1.15,2013-07-09 06:05:00,
2013-07-09 02:10:00,74.9,73.4,29.93,SSW,203,3.0,4.0,95,0.00,,,0.00,Wunderground v.1.15,2013-07-09 06:10:00,
2013-07-09 02:16:00,75.1,73.3,29.93,SSW,213,3.0,4.0,94,0.00,,,0.00,Wunderground v.1.15,2013-07-09 06:16:00,
2013-07-09 02:25:00,75.2,73.4,29.93,SW,221,3.0,4.0,94,0.00,,,0.00,Wunderground v.1.15,2013-07-09 06:25:00,
2013-07-09 02:36:00,75.1,73.3,29.94,SSW,210,4.0,4.0,94,0.00,,,0.00,Wunderground v.1.15,2013-07-09 06:36:00,
2013-07-09 02:44:00,74.9,73.1,29.93,SSW,207,4.0,6.0,94,0.00,,,0.00,Wunderground v.1.15,2013-07-09 06:44:00,
2013-07-09 02:50:00,74.9,73.1,29.93,SW,221,4.0,8.0,94,0.00,,,0.00,Wunderground v.1.15,2013-07-09 06:50:00,
2013-07-09 02:56:00,74.8,73.0,29.94,SSW,208,3.0,4.0,94,0.00,,,0.00,Wunderground v.1.15,2013-07-09 06:56:00,
2013-07-09 03:05:00,74.5,72.7,29.93,SW,221,3.0,4.0,94,0.00,,,0.00,Wunderground v.1.15,2013-07-09 07:05:00,
2013-07-09 03:10:00,74.4,72.6,29.94,SSW,200,3.0,4.0,94,0.00,,,0.00,Wunderground v.1.15,2013-07-09 07:10:00,
2013-07-09 03:20:00,74.1,72.6,29.94,SW,230,3.0,4.0,95,0.00,,,0.00,Wunderground v.1.15,2013-07-09 07:20:00,
2013-07-09 03:26:00,73.9,72.4,29.94,SW,215,3.0,4.0,95,0.00,,,0.00,Wunderground v.1.15,2013-07-09 07:26:00,
2013-07-09 03:33:00,73.9,72.4,29.94,SW,219,3.0,4.0,95,0.00,,,0.00,Wunderground v.1.15,2013-07-09 07:33:00,
2013-07-09 03:39:00,74.0,72.5,29.94,SW,214,3.0,4.0,95,0.00,,,0.00,Wunderground v.1.15,2013-07-09 07:39:00,
2013-07-09 03:47:00,74.0,72.8,29.94,SW,226,3.0,4.0,96,0.00,,,0.00,Wunderground v.1.15,2013-07-09 07:47:00,
2013-07-09 03:54:00,74.0,72.8,29.94,SW,226,2.0,4.0,96,0.00,,,0.00,Wunderground v.1.15,2013-07-09 07:54:00,
2013-07-09 04:00:00,73.9,72.4,29.94,SW,226,2.0,4.0,95,0.00,,,0.00,Wunderground v.1.15,2013-07-09 08:00:00,
2013-07-09 04:05:00,73.9,72.7,29.94,SW,234,2.0,4.0,96,0.00,,,0.00,Wunderground v.1.15,2013-07-09 08:05:00,
2013-07-09 04:11:00,74.0,72.8,29.94,West,264,3.0,4.0,96,0.00,,,0.00,Wunderground v.1.15,2013-07-09 08:11:00,
2013-07-09 04:16:00,74.3,72.8,29.94,SSW,207,3.0,4.0,95,0.00,,,0.00,Wunderground v.1.15,2013-07-09 08:16:00,
2013-07-09 04:22:00,74.3,72.8,29.94,SW,233,3.0,3.0,95,0.00,,,0.00,Wunderground v.1.15,2013-07-09 08:22:00,
2013-07-09 04:28:00,74.4,72.9,29.94,WSW,239,3.0,4.0,95,0.00,,,0.00,Wunderground v.1.15,2013-07-09 08:28:00,
2013-07-09 04:35:00,74.6,73.1,29.94,West,266,3.0,6.0,95,0.00,,,0.00,Wunderground v.1.15,2013-07-09 08:35:00,
2013-07-09 04:44:00,74.7,72.9,29.94,WSW,238,4.0,4.0,94,0.00,,,0.00,Wunderground v.1.15,2013-07-09 08:44:00,
2013-07-09 04:52:00,74.7,72.9,29.94,SW,226,3.0,5.0,94,0.00,,,0.00,Wunderground v.1.15,2013-07-09 08:52:00,
2013-07-09 05:00:00,74.6,72.8,29.94,SW,231,2.0,4.0,94,0.00,,,0.00,Wunderground v.1.15,2013-07-09 09:00:00,
2013-07-09 05:06:00,74.4,72.6,29.94,SW,231,2.0,4.0,94,0.00,,,0.00,Wunderground v.1.15,2013-07-09 09:06:00,
2013-07-09 05:11:00,74.4,72.6,29.94,WSW,238,2.0,4.0,94,0.00,,,0.00,Wunderground v.1.15,2013-07-09 09:11:00,
2013-07-09 05:18:00,74.4,72.6,29.94,WSW,238,2.0,4.0,94,0.00,,,0.00,Wunderground v.1.15,2013-07-09 09:18:00,
2013-07-09 05:25:00,74.3,72.8,29.94,SW,214,2.0,4.0,95,0.00,,,0.00,Wunderground v.1.15,2013-07-09 09:25:00,
2013-07-09 05:32:00,74.2,72.7,29.94,SSW,210,2.0,4.0,95,0.00,,,0.00,Wunderground v.1.15,2013-07-09 09:32:00,
2013-07-09 05:38:00,74.2,72.7,29.94,SW,217,2.0,4.0,95,0.00,,,0.00,Wunderground v.1.15,2013-07-09 09:38:00,
2013-07-09 05:44:00,74.2,72.7,29.94,SW,229,2.0,4.0,95,0.00,,,0.00,Wunderground v.1.15,2013-07-09 09:44:00,
2013-07-09 05:50:00,74.0,72.5,29.94,SSW,207,2.0,4.0,95,0.00,,,0.00,Wunderground v.1.15,2013-07-09 09:50:00,
2013-07-09 05:58:00,73.8,72.3,29.95,SSW,203,2.0,4.0,95,0.00,,,0.00,Wunderground v.1.15,2013-07-09 09:58:00,
2013-07-09 06:06:00,73.5,72.0,29.95,SW,226,2.0,4.0,95,0.00,,,0.00,Wunderground v.1.15,2013-07-09 10:06:00,
2013-07-09 06:15:00,73.2,72.0,29.95,SSW,201,3.0,4.0,96,0.00,,,0.00,Wunderground v.1.15,2013-07-09 10:15:00,
2013-07-09 06:21:00,73.1,71.9,29.95,SSW,211,2.0,4.0,96,0.00,,,0.00,Wunderground v.1.15,2013-07-09 10:21:00,
2013-07-09 06:26:00,72.9,71.7,29.95,SW,219,2.0,4.0,96,0.00,,,0.00,Wunderground v.1.15,2013-07-09 10:26:00,
2013-07-09 06:32:00,72.8,71.6,29.95,SW,220,2.0,4.0,96,0.00,,,0.00,Wunderground v.1.15,2013-07-09 10:32:00,
2013-07-09 06:40:00,72.7,71.5,29.95,SSW,211,2.0,4.0,96,0.00,,,0.00,Wunderground v.1.15,2013-07-09 10:40:00,
2013-07-09 06:47:00,72.7,71.5,29.95,SSW,194,2.0,4.0,96,0.00,,,0.00,Wunderground v.1.15,2013-07-09 10:47:00,
2013-07-09 06:53:00,72.7,71.5,29.95,SW,214,2.0,4.0,96,0.00,,,0.00,Wunderground v.1.15,2013-07-09 10:53:00,
2013-07-09 07:02:00,73.0,71.8,29.95,SW,214,2.0,4.0,96,0.00,,,0.00,Wunderground v.1.15,2013-07-09 11:02:00,
2013-07-09 07:08:00,73.2,72.0,29.95,SSW,204,2.0,4.0,96,0.00,,,0.00,Wunderground v.1.15,2013-07-09 11:08:00,
2013-07-09 07:14:00,73.3,72.1,29.95,SW,214,2.0,4.0,96,0.00,,,0.00,Wunderground v.1.15,2013-07-09 11:14:00,
2013-07-09 07:20:00,73.5,72.3,29.95,SW,231,2.0,4.0,96,0.00,,,0.00,Wunderground v.1.15,2013-07-09 11:20:00,
2013-07-09 07:26:00,73.9,72.7,29.95,SSW,207,2.0,4.0,96,0.00,,,0.00,Wunderground v.1.15,2013-07-09 11:26:00,
2013-07-09 07:32:00,74.1,72.9,29.95,SW,218,2.0,4.0,96,0.00,,,0.00,Wunderground v.1.15,2013-07-09 11:32:00,
2013-07-09 07:38:00,74.4,72.9,29.95,SW,230,2.0,4.0,95,0.00,,,0.00,Wunderground v.1.15,2013-07-09 11:38:00,
2013-07-09 07:44:00,74.6,73.1,29.95,SW,232,3.0,4.0,95,0.00,,,0.00,Wunderground v.1.15,2013-07-09 11:44:00,
2013-07-09 07:51:00,74.8,73.3,29.95,SW,221,3.0,4.0,95,0.00,,,0.00,Wunderground v.1.15,2013-07-09 11:51:00,
2013-07-09 07:56:00,75.0,73.5,29.96,SSW,201,2.0,4.0,95,0.00,,,0.00,Wunderground v.1.15,2013-07-09 11:56:00,
2013-07-09 08:03:00,75.5,74.0,29.96,WSW,238,3.0,4.0,95,0.00,,,0.00,Wunderground v.1.15,2013-07-09 12:03:00,
2013-07-09 08:11:00,75.9,74.0,29.95,SSW,198,3.0,4.0,94,0.00,,,0.00,Wunderground v.1.15,2013-07-09 12:11:00,
2013-07-09 08:17:00,76.2,74.0,29.95,SW,232,3.0,6.0,93,0.00,,,0.00,Wunderground v.1.15,2013-07-09 12:17:00,
2013-07-09 08:23:00,76.6,74.1,29.96,SSW,203,3.0,4.0,92,0.00,,,0.00,Wunderground v.1.15,2013-07-09 12:23:00,
2013-07-09 08:28:00,76.9,74.4,29.95,SW,228,3.0,4.0,92,0.00,,,0.00,Wunderground v.1.15,2013-07-09 12:28:00,
2013-07-09 08:34:00,77.3,74.5,29.95,SW,226,3.0,5.0,91,0.00,,,0.00,Wunderground v.1.15,2013-07-09 12:34:00,
2013-07-09 08:43:00,77.6,74.8,29.95,WSW,240,4.0,4.0,91,0.00,,,0.00,Wunderground v.1.15,2013-07-09 12:43:00,
2013-07-09 08:48:00,78.2,75.0,29.95,SW,227,3.0,4.0,90,0.00,,,0.00,Wunderground v.1.15,2013-07-09 12:48:00,
2013-07-09 08:54:00,78.6,75.4,29.95,SW,214,3.0,4.0,90,0.00,,,0.00,Wunderground v.1.15,2013-07-09 12:54:00,
2013-07-09 09:00:00,78.9,75.4,29.96,West,263,4.0,4.0,89,0.00,,,0.00,Wunderground v.1.15,2013-07-09 13:00:00,
2013-07-09 09:06:00,79.3,75.8,29.96,WSW,249,3.0,4.0,89,0.00,,,0.00,Wunderground v.1.15,2013-07-09 13:06:00,
2013-07-09 09:12:00,79.4,75.5,29.96,SW,221,4.0,5.0,88,0.00,,,0.00,Wunderground v.1.15,2013-07-09 13:12:00,
2013-07-09 09:18:00,79.5,75.6,29.95,SW,226,5.0,6.0,88,0.00,,,0.00,Wunderground v.1.15,2013-07-09 13:18:00,
2013-07-09 09:24:00,80.0,76.1,29.96,West,259,4.0,4.0,88,0.00,,,0.00,Wunderground v.1.15,2013-07-09 13:24:00,
2013-07-09 09:30:00,80.4,76.5,29.95,SW,236,4.0,5.0,88,0.00,,,0.00,Wunderground v.1.15,2013-07-09 13:30:00,
2013-07-09 09:36:00,80.3,76.1,29.95,WSW,245,4.0,5.0,87,0.00,,,0.00,Wunderground v.1.15,2013-07-09 13:36:00,
2013-07-09 09:41:00,80.6,76.4,29.95,West,271,4.0,4.0,87,0.00,,,0.00,Wunderground v.1.15,2013-07-09 13:41:00,
2013-07-09 09:48:00,81.0,76.4,29.95,SW,229,4.0,4.0,86,0.00,,,0.00,Wunderground v.1.15,2013-07-09 13:48:00,
2013-07-09 09:54:00,81.1,76.5,29.95,WSW,250,4.0,5.0,86,0.00,,,0.00,Wunderground v.1.15,2013-07-09 13:54:00,
2013-07-09 10:00:00,81.4,76.8,29.95,WSW,240,4.0,4.0,86,0.00,,,0.00,Wunderground v.1.15,2013-07-09 14:00:00,
2013-07-09 10:06:00,81.7,76.7,29.95,SSW,201,4.0,8.0,85,0.00,,,0.00,Wunderground v.1.15,2013-07-09 14:06:00,
2013-07-09 10:12:00,81.8,76.8,29.95,SSW,194,4.0,5.0,85,0.00,,,0.00,Wunderground v.1.15,2013-07-09 14:12:00,
2013-07-09 10:18:00,82.1,77.1,29.95,WSW,240,4.0,8.0,85,0.00,,,0.00,Wunderground v.1.15,2013-07-09 14:18:00,
2013-07-09 10:25:00,82.3,77.3,29.95,SW,225,5.0,7.0,85,0.00,,,0.00,Wunderground v.1.15,2013-07-09 14:25:00,
2013-07-09 10:32:00,82.6,77.3,29.95,WSW,252,5.0,5.0,84,0.00,,,0.00,Wunderground v.1.15,2013-07-09 14:32:00,
2013-07-09 10:38:00,82.9,77.6,29.95,WSW,253,5.0,5.0,84,0.00,,,0.00,Wunderground v.1.15,2013-07-09 14:38:00,
2013-07-09 10:44:00,83.0,77.7,29.95,WSW,240,5.0,6.0,84,0.00,,,0.00,Wunderground v.1.15,2013-07-09 14:44:00,
2013-07-09 10:51:00,83.0,77.7,29.95,SW,231,6.0,7.0,84,0.00,,,0.00,Wunderground v.1.15,2013-07-09 14:51:00,
2013-07-09 10:56:00,83.4,78.4,29.94,SW,233,5.0,6.0,85,0.00,,,0.00,Wunderground v.1.15,2013-07-09 14:56:00,
2013-07-09 11:02:00,83.6,77.9,29.94,West,259,5.0,6.0,83,0.00,,,0.00,Wunderground v.1.15,2013-07-09 15:02:00,
2013-07-09 11:08:00,83.8,78.1,29.94,West,281,5.0,6.0,83,0.00,,,0.00,Wunderground v.1.15,2013-07-09 15:08:00,
2013-07-09 11:14:00,84.1,78.4,29.94,SSW,205,5.0,5.0,83,0.00,,,0.00,Wunderground v.1.15,2013-07-09 15:14:00,
2013-07-09 11:20:00,84.5,79.1,29.94,SSW,206,5.0,5.0,84,0.00,,,0.00,Wunderground v.1.15,2013-07-09 15:20:00,
2013-07-09 11:27:00,84.6,78.9,29.94,WSW,242,5.0,6.0,83,0.00,,,0.00,Wunderground v.1.15,2013-07-09 15:27:00,
2013-07-09 11:32:00,84.7,78.2,29.94,WSW,243,6.0,7.0,81,0.00,,,0.00,Wunderground v.1.15,2013-07-09 15:32:00,
2013-07-09 11:38:00,84.7,78.6,29.94,SW,232,6.0,8.0,82,0.00,,,0.00,Wunderground v.1.15,2013-07-09 15:38:00,
2013-07-09 11:44:00,84.9,78.8,29.94,West,259,5.0,6.0,82,0.00,,,0.00,Wunderground v.1.15,2013-07-09 15:44:00,
2013-07-09 11:50:00,85.1,79.0,29.94,SW,236,5.0,7.0,82,0.00,,,0.00,Wunderground v.1.15,2013-07-09 15:50:00,
2013-07-09 11:56:00,85.4,79.3,29.93,SSW,207,5.0,7.0,82,0.00,,,0.00,Wunderground v.1.15,2013-07-09 15:56:00,
2013-07-09 12:03:00,85.3,78.8,29.94,WSW,252,6.0,6.0,81,0.00,,,0.00,Wunderground v.1.15,2013-07-09 16:03:00,
2013-07-09 12:13:00,85.6,79.1,29.94,WSW,246,5.0,5.0,81,0.00,,,0.00,Wunderground v.1.15,2013-07-09 16:13:00,
2013-07-09 12:19:00,85.5,78.2,29.94,SW,228,6.0,7.0,79,0.00,,,0.00,Wunderground v.1.15,2013-07-09 16:19:00,
2013-07-09 12:27:00,85.7,77.7,29.94,WSW,240,6.0,8.0,77,0.00,,,0.00,Wunderground v.1.15,2013-07-09 16:27:00,
2013-07-09 12:34:00,86.0,79.1,29.94,SW,236,5.0,5.0,80,0.00,,,0.00,Wunderground v.1.15,2013-07-09 16:34:00,
2013-07-09 12:40:00,86.1,78.4,29.94,South,191,6.0,10.0,78,0.00,,,0.00,Wunderground v.1.15,2013-07-09 16:40:00,
2013-07-09 12:46:00,86.2,79.3,29.94,SW,233,8.0,11.0,80,0.00,,,0.00,Wunderground v.1.15,2013-07-09 16:46:00,
2013-07-09 12:52:00,86.5,79.2,29.94,SW,229,7.0,11.0,79,0.00,,,0.00,Wunderground v.1.15,2013-07-09 16:52:00,
2013-07-09 12:59:00,86.3,78.2,29.93,SW,219,7.0,7.0,77,0.00,,,0.00,Wunderground v.1.15,2013-07-09 16:59:00,
2013-07-09 13:04:00,86.4,78.7,29.93,SW,214,7.0,8.0,78,0.00,,,0.00,Wunderground v.1.15,2013-07-09 17:04:00,
2013-07-09 13:10:00,86.3,79.0,29.93,WSW,253,7.0,10.0,79,0.00,,,0.00,Wunderground v.1.15,2013-07-09 17:10:00,
2013-07-09 13:16:00,86.2,78.5,29.93,SW,229,7.0,9.0,78,0.00,,,0.00,Wunderground v.1.15,2013-07-09 17:16:00,
2013-07-09 13:21:00,86.4,78.7,29.93,SSW,211,6.0,9.0,78,0.00,,,0.00,Wunderground v.1.15,2013-07-09 17:21:00,
2013-07-09 13:28:00,86.7,78.6,29.93,WSW,248,6.0,6.0,77,0.00,,,0.00,Wunderground v.1.15,2013-07-09 17:28:00,
2013-07-09 13:36:00,86.6,78.1,29.93,SW,228,7.0,7.0,76,0.00,,,0.00,Wunderground v.1.15,2013-07-09 17:36:00,
2013-07-09 13:42:00,87.1,79.0,29.92,WNW,283,6.0,9.0,77,0.00,,,0.00,Wunderground v.1.15,2013-07-09 17:42:00,
2013-07-09 13:48:00,87.6,79.1,29.92,SW,233,5.0,9.0,76,0.00,,,0.00,Wunderground v.1.15,2013-07-09 17:48:00,
2013-07-09 13:59:00,87.1,78.6,29.92,SSW,197,5.0,7.0,76,0.00,,,0.00,Wunderground v.1.15,2013-07-09 17:59:00,
2013-07-09 14:04:00,86.9,79.2,29.92,WSW,253,5.0,6.0,78,0.00,,,0.00,Wunderground v.1.15,2013-07-09 18:04:00,
2013-07-09 14:09:00,86.4,77.9,29.91,WSW,250,6.0,6.0,76,0.00,,,0.00,Wunderground v.1.15,2013-07-09 18:09:00,
2013-07-09 14:18:00,86.8,79.9,29.91,SW,236,4.0,5.0,80,0.00,,,0.00,Wunderground v.1.15,2013-07-09 18:18:00,
2013-07-09 14:25:00,87.3,79.6,29.91,SW,224,4.0,4.0,78,0.00,,,0.00,Wunderground v.1.15,2013-07-09 18:25:00,
2013-07-09 14:30:00,87.0,80.1,29.91,SSW,198,4.0,7.0,80,0.00,,,0.00,Wunderground v.1.15,2013-07-09 18:30:00,
2013-07-09 14:36:00,86.6,79.3,29.90,SSW,200,5.0,8.0,79,0.00,,,0.00,Wunderground v.1.15,2013-07-09 18:36:00,
2013-07-09 14:42:00,86.8,79.1,29.91,SW,215,7.0,8.0,78,0.00,,,0.00,Wunderground v.1.15,2013-07-09 18:42:00,
2013-07-09 14:48:00,86.2,78.5,29.90,WSW,239,7.0,11.0,78,0.00,,,0.00,Wunderground v.1.15,2013-07-09 18:48:00,
2013-07-09 14:54:00,86.3,78.2,29.90,West,270,6.0,7.0,77,0.00,,,0.00,Wunderground v.1.15,2013-07-09 18:54:00,
2013-07-09 15:00:00,86.8,79.1,29.91,WSW,255,6.0,6.0,78,0.00,,,0.00,Wunderground v.1.15,2013-07-09 19:00:00,
2013-07-09 15:06:00,86.4,77.5,29.91,WNW,290,6.0,8.0,75,0.00,,,0.00,Wunderground v.1.15,2013-07-09 19:06:00,
2013-07-09 15:12:00,85.9,78.2,29.90,WSW,248,6.0,8.0,78,0.00,,,0.00,Wunderground v.1.15,2013-07-09 19:12:00,
2013-07-09 15:19:00,85.9,78.2,29.90,WSW,238,5.0,8.0,78,0.00,,,0.00,Wunderground v.1.15,2013-07-09 19:19:00,
2013-07-09 15:22:00,85.6,77.6,29.90,WSW,240,5.0,5.0,77,0.00,,,0.00,Wunderground v.1.15,2013-07-09 19:22:00,
2013-07-09 15:30:00,85.1,77.5,29.90,West,263,5.0,6.0,78,0.00,,,0.00,Wunderground v.1.15,2013-07-09 19:30:00,
2013-07-09 15:36:00,84.7,77.5,29.89,SSW,210,4.0,6.0,79,0.00,,,0.00,Wunderground v.1.15,2013-07-09 19:36:00,
2013-07-09 15:42:00,84.2,76.6,29.89,SW,228,6.0,6.0,78,0.00,,,0.00,Wunderground v.1.15,2013-07-09 19:42:00,
2013-07-09 15:48:00,84.1,76.5,29.90,SW,228,5.0,6.0,78,0.00,,,0.00,Wunderground v.1.15,2013-07-09 19:48:00,
2013-07-09 15:54:00,84.0,76.4,29.90,WSW,250,5.0,7.0,78,0.00,,,0.00,Wunderground v.1.15,2013-07-09 19:54:00,
2013-07-09 16:00:00,84.1,77.3,29.89,SW,233,4.0,4.0,80,0.00,,,0.00,Wunderground v.1.15,2013-07-09 20:00:00,
2013-07-09 16:05:00,84.2,77.7,29.89,South,174,4.0,5.0,81,0.00,,,0.00,Wunderground v.1.15,2013-07-09 20:05:00,
2013-07-09 16:11:00,84.5,78.4,29.89,SSW,211,4.0,4.0,82,0.00,,,0.00,Wunderground v.1.15,2013-07-09 20:11:00,
2013-07-09 16:18:00,84.6,78.1,29.89,West,259,3.0,4.0,81,0.00,,,0.00,Wunderground v.1.15,2013-07-09 20:18:00,
2013-07-09 16:24:00,84.5,78.0,29.89,WSW,256,4.0,5.0,81,0.00,,,0.00,Wunderground v.1.15,2013-07-09 20:24:00,
2013-07-09 16:31:00,84.6,78.5,29.90,WSW,255,3.0,4.0,82,0.00,,,0.00,Wunderground v.1.15,2013-07-09 20:31:00,
2013-07-09 16:38:00,84.5,78.4,29.90,West,260,3.0,4.0,82,0.00,,,0.00,Wunderground v.1.15,2013-07-09 20:38:00,
2013-07-09 16:43:00,84.5,78.4,29.90,SW,233,3.0,3.0,82,0.00,,,0.00,Wunderground v.1.15,2013-07-09 20:43:00,
2013-07-09 16:52:00,84.3,77.8,29.89,WSW,248,3.0,4.0,81,0.00,,,0.00,Wunderground v.1.15,2013-07-09 20:52:00,
2013-07-09 17:00:00,84.2,77.7,29.89,WSW,239,3.0,3.0,81,0.00,,,0.00,Wunderground v.1.15,2013-07-09 21:00:00,
2013-07-09 17:10:00,84.0,77.9,29.89,SW,235,2.0,4.0,82,0.00,,,0.00,Wunderground v.1.15,2013-07-09 21:10:00,
2013-07-09 17:16:00,83.8,77.3,29.89,WSW,243,3.0,4.0,81,0.00,,,0.00,Wunderground v.1.15,2013-07-09 21:16:00,
2013-07-09 17:23:00,83.8,77.7,29.89,WSW,248,3.0,4.0,82,0.00,,,0.00,Wunderground v.1.15,2013-07-09 21:23:00,
2013-07-09 17:31:00,83.9,77.8,29.89,WSW,257,2.0,4.0,82,0.00,,,0.00,Wunderground v.1.15,2013-07-09 21:31:00,
2013-07-09 17:38:00,84.3,78.2,29.89,WSW,256,1.0,4.0,82,0.00,,,0.00,Wunderground v.1.15,2013-07-09 21:38:00,
2013-07-09 17:44:00,84.6,78.5,29.88,WSW,248,1.0,4.0,82,0.00,,,0.00,Wunderground v.1.15,2013-07-09 21:44:00,
2013-07-09 17:50:00,84.9,78.4,29.88,WSW,253,1.0,4.0,81,0.00,,,0.00,Wunderground v.1.15,2013-07-09 21:50:00,
2013-07-09 17:56:00,85.3,78.4,29.88,SW,222,2.0,4.0,80,0.00,,,0.00,Wunderground v.1.15,2013-07-09 21:56:00,
2013-07-09 18:02:00,85.6,78.3,29.87,West,263,2.0,4.0,79,0.00,,,0.00,Wunderground v.1.15,2013-07-09 22:02:00,
2013-07-09 18:08:00,85.6,78.3,29.87,WSW,246,2.0,4.0,79,0.00,,,0.00,Wunderground v.1.15,2013-07-09 22:08:00,
2013-07-09 18:14:00,85.8,78.9,29.87,SW,224,2.0,2.0,80,0.00,,,0.00,Wunderground v.1.15,2013-07-09 22:14:00,
2013-07-09 18:21:00,85.7,78.8,29.87,WSW,257,3.0,4.0,80,0.00,,,0.00,Wunderground v.1.15,2013-07-09 22:21:00,
2013-07-09 18:28:00,85.5,78.6,29.87,SSW,207,3.0,4.0,80,0.00,,,0.00,Wunderground v.1.15,2013-07-09 22:28:00,
2013-07-09 18:35:00,85.4,78.9,29.87,SW,235,2.0,4.0,81,0.00,,,0.00,Wunderground v.1.15,2013-07-09 22:35:00,
2013-07-09 18:43:00,85.3,78.8,29.86,WSW,242,3.0,5.0,81,0.00,,,0.00,Wunderground v.1.15,2013-07-09 22:43:00,
2013-07-09 18:48:00,85.1,78.6,29.86,SW,232,3.0,5.0,81,0.00,,,0.00,Wunderground v.1.15,2013-07-09 22:48:00,
2013-07-09 18:56:00,85.0,78.5,29.86,SW,231,3.0,4.0,81,0.00,,,0.00,Wunderground v.1.15,2013-07-09 22:56:00,
2013-07-09 19:01:00,85.2,79.1,29.85,SW,228,3.0,5.0,82,0.00,,,0.00,Wunderground v.1.15,2013-07-09 23:01:00,
2013-07-09 19:07:00,85.5,79.0,29.85,SW,228,3.0,5.0,81,0.00,,,0.00,Wunderground v.1.15,2013-07-09 23:07:00,
2013-07-09 19:14:00,85.4,78.9,29.85,West,271,3.0,4.0,81,0.00,,,0.00,Wunderground v.1.15,2013-07-09 23:14:00,
2013-07-09 19:20:00,84.9,78.4,29.85,SW,215,3.0,3.0,81,0.00,,,0.00,Wunderground v.1.15,2013-07-09 23:20:00,
2013-07-09 19:25:00,84.5,78.0,29.85,WSW,247,3.0,5.0,81,0.00,,,0.00,Wunderground v.1.15,2013-07-09 23:25:00,
2013-07-09 19:32:00,84.0,77.9,29.85,WSW,246,3.0,4.0,82,0.00,,,0.00,Wunderground v.1.15,2013-07-09 23:32:00,
2013-07-09 19:38:00,83.7,78.0,29.85,SW,229,3.0,4.0,83,0.00,,,0.00,Wunderground v.1.15,2013-07-09 23:38:00,
2013-07-09 19:44:00,83.4,78.1,29.85,SW,236,2.0,4.0,84,0.00,,,0.00,Wunderground v.1.15,2013-07-09 23:44:00,
2013-07-09 19:50:00,83.1,78.1,29.85,SSW,207,2.0,4.0,85,0.00,,,0.00,Wunderground v.1.15,2013-07-09 23:50:00,
2013-07-09 19:56:00,82.8,78.2,29.85,SW,220,2.0,4.0,86,0.00,,,0.00,Wunderground v.1.15,2013-07-09 23:56:00,
2013-07-09 20:02:00,82.4,78.1,29.85,SW,225,1.0,4.0,87,0.00,,,0.00,Wunderground v.1.15,2013-07-10 00:02:00,
2013-07-09 20:08:00,82.2,77.9,29.85,SW,222,1.0,4.0,87,0.00,,,0.00,Wunderground v.1.15,2013-07-10 00:08:00,
2013-07-09 20:14:00,82.0,78.1,29.85,SSW,206,1.0,4.0,88,0.00,,,0.00,Wunderground v.1.15,2013-07-10 00:14:00,
2013-07-09 20:21:00,81.9,78.3,29.85,SW,214,1.0,1.0,89,0.00,,,0.00,Wunderground v.1.15,2013-07-10 00:21:00,
2013-07-09 20:27:00,81.9,78.3,29.85,SW,226,0.0,4.0,89,0.00,,,0.00,Wunderground v.1.15,2013-07-10 00:27:00,
2013-07-09 20:32:00,81.7,78.1,29.85,SSW,201,0.0,4.0,89,0.00,,,0.00,Wunderground v.1.15,2013-07-10 00:32:00,
2013-07-09 20:38:00,81.6,78.0,29.85,SW,221,1.0,4.0,89,0.00,,,0.00,Wunderground v.1.15,2013-07-10 00:38:00,
2013-07-09 20:44:00,81.4,77.8,29.85,SW,218,2.0,4.0,89,0.00,,,0.00,Wunderground v.1.15,2013-07-10 00:44:00,
2013-07-09 20:49:00,81.4,77.8,29.85,SSW,204,3.0,4.0,89,0.00,,,0.00,Wunderground v.1.15,2013-07-10 00:49:00,
2013-07-09 20:56:00,81.2,77.6,29.85,SSW,212,4.0,4.0,89,0.00,,,0.00,Wunderground v.1.15,2013-07-10 00:56:00,
2013-07-09 21:02:00,81.2,77.3,29.85,SW,229,4.0,5.0,88,0.00,,,0.00,Wunderground v.1.15,2013-07-10 01:02:00,
2013-07-09 21:08:00,81.3,77.1,29.85,SW,222,4.0,5.0,87,0.00,,,0.00,Wunderground v.1.15,2013-07-10 01:08:00,
2013-07-09 21:14:00,81.3,77.1,29.85,SSW,200,4.0,4.0,87,0.00,,,0.00,Wunderground v.1.15,2013-07-10 01:14:00,
2013-07-09 21:20:00,81.2,77.0,29.85,WSW,255,3.0,4.0,87,0.00,,,0.00,Wunderground v.1.15,2013-07-10 01:20:00,
2013-07-09 21:26:00,81.1,76.9,29.85,SSW,203,3.0,5.0,87,0.00,,,0.00,Wunderground v.1.15,2013-07-10 01:26:00,
2013-07-09 21:34:00,81.0,76.4,29.86,SSW,212,3.0,4.0,86,0.00,,,0.00,Wunderground v.1.15,2013-07-10 01:34:00,
2013-07-09 21:41:00,80.9,76.7,29.86,WSW,238,3.0,4.0,87,0.00,,,0.00,Wunderground v.1.15,2013-07-10 01:41:00,
2013-07-09 21:46:00,80.7,76.5,29.86,SW,229,3.0,4.0,87,0.00,,,0.00,Wunderground v.1.15,2013-07-10 01:46:00,
2013-07-09 21:52:00,80.6,76.4,29.86,SSW,205,3.0,4.0,87,0.00,,,0.00,Wunderground v.1.15,2013-07-10 01:52:00,
2013-07-09 21:58:00,80.5,76.3,29.86,SSW,210,3.0,4.0,87,0.00,,,0.00,Wunderground v.1.15,2013-07-10 01:58:00,
2013-07-09 22:04:00,80.3,76.1,29.86,SSW,212,3.0,4.0,87,0.00,,,0.00,Wunderground v.1.15,2013-07-10 02:04:00,
2013-07-09 22:10:00,80.1,76.2,29.86,SSW,208,3.0,4.0,88,0.00,,,0.00,Wunderground v.1.15,2013-07-10 02:10:00,
2013-07-09 22:17:00,79.8,75.9,29.87,SSW,203,3.0,4.0,88,0.00,,,0.00,Wunderground v.1.15,2013-07-10 02:17:00,
2013-07-09 22:22:00,79.7,75.8,29.87,SW,218,3.0,3.0,88,0.00,,,0.00,Wunderground v.1.15,2013-07-10 02:22:00,
2013-07-09 22:29:00,79.5,76.0,29.87,SW,224,3.0,4.0,89,0.00,,,0.00,Wunderground v.1.15,2013-07-10 02:29:00,
2013-07-09 22:34:00,79.3,75.8,29.87,SW,236,2.0,4.0,89,0.00,,,0.00,Wunderground v.1.15,2013-07-10 02:34:00,
2013-07-09 22:40:00,79.1,75.9,29.87,SSW,203,3.0,4.0,90,0.00,,,0.00,Wunderground v.1.15,2013-07-10 02:40:00,
2013-07-09 22:48:00,78.9,75.7,29.87,WSW,238,3.0,4.0,90,0.00,,,0.00,Wunderground v.1.15,2013-07-10 02:48:00,
2013-07-09 22:54:00,78.8,75.6,29.87,SW,231,3.0,5.0,90,0.00,,,0.00,Wunderground v.1.15,2013-07-10 02:54:00,
2013-07-09 23:00:00,78.7,75.8,29.87,SSW,211,3.0,4.0,91,0.00,,,0.00,Wunderground v.1.15,2013-07-10 03:00:00,
2013-07-09 23:06:00,78.6,75.8,29.87,SW,233,3.0,4.0,91,0.00,,,0.00,Wunderground v.1.15,2013-07-10 03:06:00,
2013-07-09 23:12:00,78.4,75.6,29.87,South,189,2.0,4.0,91,0.00,,,0.00,Wunderground v.1.15,2013-07-10 03:12:00,
2013-07-09 23:18:00,78.4,75.6,29.86,SW,221,2.0,4.0,91,0.00,,,0.00,Wunderground v.1.15,2013-07-10 03:18:00,
2013-07-09 23:24:00,78.3,75.8,29.86,SW,215,2.0,4.0,92,0.00,,,0.00,Wunderground v.1.15,2013-07-10 03:24:00,
2013-07-09 23:29:00,78.2,75.7,29.86,SSW,197,2.0,4.0,92,0.00,,,0.00,Wunderground v.1.15,2013-07-10 03:29:00,
2013-07-09 23:36:00,78.1,75.6,29.86,SSW,204,2.0,4.0,92,0.00,,,0.00,Wunderground v.1.15,2013-07-10 03:36:00,
2013-07-09 23:42:00,78.0,75.5,29.86,SW,225,2.0,5.0,92,0.00,,,0.00,Wunderground v.1.15,2013-07-10 03:42:00,
2013-07-09 23:48:00,78.1,75.6,29.86,SSW,195,3.0,5.0,92,0.00,,,0.00,Wunderground v.1.15,2013-07-10 03:48:00,
2013-07-09 23:55:00,78.0,75.5,29.86,SW,221,3.0,4.0,92,0.00,,,0.00,Wunderground v.1.15,2013-07-10 03:55:00,